Amsterdam, Netherlands

10:38 AM CEST on July 30, 2016 (GMT +0200)
Schiphol

Weather History for EHAM - May, 2013

Change the Weather History Date:

Wednesday, May 22, 2013

  Actual Average Record
Temperature  
Mean Temperature 48 °F -  
Max Temperature 54 °F 65 °F 81 °F (2012)
Min Temperature 41 °F 50 °F 41 °F (2004)
Degree Days  
Heating Degree Days 17    
Moisture  
Dew Point 41 °F    
Average Humidity 75    
Maximum Humidity 87    
Minimum Humidity 59    
Precipitation  
Precipitation 0.00 in - - ()
Sea Level Pressure  
Sea Level Pressure 29.94 in    
Wind  
Wind Speed 15 mph ()    
Max Wind Speed 25 mph    
Max Gust Speed 36 mph    
Visibility 7.3 miles    
Events Rain    
Averages and records for this station are not official NWS values.
T = Trace of Precipitation, MM = Missing Value Source: Averaged Metar Reports

Daily Weather History Graph

Daily Weather History Graph

Search for Another Location

Airport or City:

Trip Planner

Search our weather history database for the weather conditions in past years. The results will help you decide how hot, cold, wet, or windy it might be!

Date:

Astronomy

May. 22, 2013 Rise Set
Actual Time 5:35 AM CEST 9:40 PM CEST
Civil Twilight 4:51 AM CEST 10:25 PM CEST
Nautical Twilight 3:47 AM CEST 11:29 PM CEST
Astronomical Twilight 2:09 AM CEST 1:05 AM CEST
Moon 6:24 PM CEST (5/22) 3:55 AM CEST (5/22)
Length of Visible Light 17h 33m
Length of Day
16h 04m
Waxing Gibbous, 89% of the Moon is Illuminated
May 22
Waxing Gibbous
May 25
Full
May 31
Last Quarter
Jun 8
New
Jun 16
First Quarter

Hourly Weather History & Observations

Time (CEST) Temp. Windchill Dew Point Humidity Pressure Visibility Wind Dir Wind Speed Gust Speed Precip Events Conditions
12:25 AM 48.2 °F - 44.6 °F 87% 29.89 in 5.6 mi NNW 17.3 mph - N/A Rain Light Drizzle
12:55 AM 48.2 °F - 44.6 °F 87% 29.89 in 6.2 mi NNW 16.1 mph - N/A   Light Drizzle
1:25 AM 48.2 °F - 44.6 °F 87% 29.89 in 6.2 mi NNW 13.8 mph - N/A   Mostly Cloudy
1:55 AM 48.2 °F - 42.8 °F 82% 29.89 in 6.2 mi NNW 17.3 mph - N/A   Mostly Cloudy
2:00 AM 48 °F - 43 °F 77% 29.91 in 9 mi NNW 15.7 mph - - Rain Rain
2:25 AM 48.2 °F - 42.8 °F 82% 29.89 in 6.2 mi NNW 16.1 mph - N/A   Light Drizzle
2:55 AM 48.2 °F - 42.8 °F 82% 29.89 in 6.2 mi NNW 12.7 mph - N/A   Light Drizzle
3:25 AM 46.4 °F 39.5 °F 42.8 °F 87% 29.89 in 6.2 mi NNW 17.3 mph - N/A   Mostly Cloudy
3:55 AM 46.4 °F 39.0 °F 41.0 °F 81% 29.89 in 6.2 mi NNW 19.6 mph - N/A   Mostly Cloudy
4:25 AM 46.4 °F 39.5 °F 39.2 °F 76% 29.89 in 6.2 mi NNW 17.3 mph - N/A   Overcast
4:55 AM 46.4 °F 39.8 °F 39.2 °F 76% 29.89 in 6.2 mi NNW 16.1 mph - N/A   Overcast
5:00 AM 47 °F - 39 °F 65% 29.91 in 11 mi NNW 15.7 mph - -   Overcast
5:25 AM 46.4 °F 40.4 °F 39.2 °F 76% 29.89 in 6.2 mi NNW 13.8 mph - N/A   Overcast
5:55 AM 46.4 °F 40.1 °F 41.0 °F 81% 29.89 in 6.2 mi NNW 15.0 mph - N/A   Overcast
6:25 AM 46.4 °F 40.1 °F 39.2 °F 76% 29.89 in 6.2 mi NNW 15.0 mph - N/A   Overcast
6:55 AM 46.4 °F 39.8 °F 39.2 °F 76% 29.89 in 6.2 mi NNW 16.1 mph - N/A   Overcast
7:25 AM 46.4 °F 39.2 °F 41.0 °F 81% 29.89 in 6.2 mi NNW 18.4 mph - N/A   Overcast
7:55 AM 48.2 °F - 41.0 °F 76% 29.92 in 6.2 mi NNW 16.1 mph - N/A   Overcast
8:00 AM 47 °F - 40 °F 69% 29.92 in 12 mi NNW 17.9 mph - -   Partly Cloudy
8:25 AM 48.2 °F - 41.0 °F 76% 29.92 in 6.2 mi NNW 17.3 mph - N/A   Overcast
8:55 AM 48.2 °F - 41.0 °F 76% 29.92 in 6.2 mi NNW 18.4 mph - N/A   Mostly Cloudy
9:25 AM 48.2 °F - 39.2 °F 71% 29.92 in 6.2 mi NNW 21.9 mph - N/A   Mostly Cloudy
9:55 AM 50.0 °F - 41.0 °F 71% 29.92 in 6.2 mi NNW 18.4 mph - N/A   Mostly Cloudy
10:25 AM 51.8 °F - 41.0 °F 67% 29.92 in 6.2 mi NNW 18.4 mph - N/A   Scattered Clouds
10:55 AM 50.0 °F - 41.0 °F 71% 29.92 in 6.2 mi NNW 24.2 mph 35.7 mph N/A   Mostly Cloudy
11:00 AM 50 °F - 40 °F 60% 29.95 in 16 mi NNW 24.6 mph - -   Overcast
11:25 AM 50.0 °F - 41.0 °F 71% 29.95 in 6.2 mi NNW 18.4 mph - N/A   Mostly Cloudy
11:55 AM 50.0 °F - 41.0 °F 71% 29.95 in 6.2 mi NW 20.7 mph - N/A   Mostly Cloudy
12:25 PM 50.0 °F - 42.8 °F 76% 29.95 in 6.2 mi NW 19.6 mph - N/A   Mostly Cloudy
12:55 PM 53.6 °F - 44.6 °F 72% 29.95 in 6.2 mi NW 23.0 mph - N/A   Mostly Cloudy
1:25 PM 51.8 °F - 42.8 °F 71% 29.95 in 6.2 mi NW 23.0 mph - N/A   Mostly Cloudy
1:55 PM 53.6 °F - 44.6 °F 72% 29.98 in 6.2 mi NNW 19.6 mph - N/A   Scattered Clouds
2:00 PM 53 °F - 43 °F 59% 29.98 in 16 mi NNW 20.1 mph - -   Partly Cloudy
2:25 PM 53.6 °F - 42.8 °F 67% 29.98 in 6.2 mi NNW 21.9 mph - N/A   Mostly Cloudy
2:55 PM 51.8 °F - 42.8 °F 71% 29.98 in 6.2 mi NW 23.0 mph - N/A   Mostly Cloudy
3:25 PM 51.8 °F - 42.8 °F 71% 29.98 in 6.2 mi NW 20.7 mph - N/A   Mostly Cloudy
3:55 PM 51.8 °F - 44.6 °F 76% 29.98 in 6.2 mi NW 19.6 mph - N/A   Mostly Cloudy
4:25 PM 51.8 °F - 44.6 °F 76% 29.98 in 6.2 mi NW 19.6 mph - N/A   Mostly Cloudy
4:55 PM 51.8 °F - 44.6 °F 76% 29.98 in 6.2 mi WNW 18.4 mph - N/A   Scattered Clouds
5:00 PM 51 °F - 44 °F 68% 30.00 in 16 mi NW 20.1 mph - -   Overcast
5:25 PM 50.0 °F - 41.0 °F 71% 29.98 in 6.2 mi NW 19.6 mph - N/A   Mostly Cloudy
5:55 PM 50.0 °F - 41.0 °F 71% 29.98 in 6.2 mi NW 19.6 mph - N/A   Mostly Cloudy
6:25 PM 50.0 °F - 42.8 °F 76% 29.98 in 6.2 mi NW 16.1 mph - N/A   Scattered Clouds
6:55 PM 51.8 °F - 42.8 °F 71% 29.98 in 6.2 mi NW 16.1 mph - N/A   Partly Cloudy
7:25 PM 50.0 °F - 41.0 °F 71% 29.98 in 6.2 mi NW 13.8 mph - N/A   Partly Cloudy
7:55 PM 50.0 °F - 41.0 °F 71% 29.95 in 6.2 mi NW 12.7 mph - N/A   Partly Cloudy
8:00 PM 49 °F - 40 °F 61% 29.97 in 17 mi NW 11.2 mph - -   Partly Cloudy
8:25 PM 48.2 °F - 39.2 °F 71% 29.95 in 6.2 mi WNW 12.7 mph - N/A   Partly Cloudy
8:55 PM 46.4 °F 41.1 °F 41.0 °F 81% 29.95 in 6.2 mi WNW 11.5 mph - N/A   Partly Cloudy
9:25 PM 46.4 °F 41.9 °F 39.2 °F 76% 29.95 in 6.2 mi NW 9.2 mph - N/A   Partly Cloudy
9:55 PM 46.4 °F 42.4 °F 41.0 °F 81% 29.95 in 6.2 mi NW 8.1 mph - N/A   Partly Cloudy
10:25 PM 44.6 °F 40.7 °F 39.2 °F 81% 29.95 in 6.2 mi WNW 6.9 mph - N/A   Partly Cloudy
10:55 PM 44.6 °F 40.7 °F 39.2 °F 81% 29.95 in 6.2 mi West 6.9 mph - N/A   Partly Cloudy
11:00 PM 44 °F - 39 °F 78% 29.95 in 12 mi West 6.7 mph - -   Mostly Cloudy
11:25 PM 42.8 °F 38.6 °F 39.2 °F 87% 29.92 in 6.2 mi West 6.9 mph - N/A   Partly Cloudy
11:55 PM 41.0 °F 36.4 °F 37.4 °F 87% 29.92 in - West 6.9 mph - N/A   Clear